YD2CLX-14 Weather Reports


time (UTC)temp
F
wind
direction
speed
knots
gust
knots
rain 1hr
in
rain 24hr
in
rain mn
in
humidity
%
barometer
mb
20260505223558 60 174 1.7 1.7 0.00 0.00 0.00 91 807.0
20260505223101 60 174 1.7 1.7 0.00 0.00 0.00 90 807.0
20260505222557 60 169 1.7 1.7 0.00 0.00 0.00 89 807.0
20260505222058 60 169 1.7 1.7 0.00 0.00 0.00 90 807.0
20260505221558 60 169 1.7 1.7 0.00 0.00 0.00 90 806.9
20260505221101 60 169 1.7 1.7 0.00 0.00 0.00 90 806.9
20260505220557 60 169 1.7 1.7 0.00 0.00 0.00 92 806.9
20260505215557 60 169 1.7 1.7 0.00 0.00 0.00 90 806.8
20260505215100 60 169 1.7 1.7 0.00 0.00 0.00 91 806.8
20260505214559 60 169 1.7 1.7 0.00 0.00 0.00 91 806.8
20260505214101 60 169 1.7 1.7 0.00 0.00 0.00 91 806.8
20260505213559 60 169 1.7 1.7 0.00 0.00 0.00 92 806.8
20260505213107 61 169 1.7 1.7 0.00 0.00 0.00 91 806.7
20260505212559 61 190 1.7 1.7 0.00 0.00 0.00 91 806.7
20260505212100 60 190 1.7 1.7 0.00 0.00 0.00 91 806.7
20260505211601 60 190 1.7 1.7 0.00 0.00 0.00 91 806.7
20260505211059 60 190 1.7 1.7 0.00 0.00 0.00 90 806.8
20260505210602 60 190 1.7 1.7 0.00 0.00 0.00 89 806.8
20260505205559 60 190 1.7 1.7 0.00 0.00 0.00 90 806.8
20260505205101 60 190 1.7 1.7 0.00 0.00 0.00 90 806.8
20260505204607 60 190 1.7 1.7 0.00 0.00 0.00 90 806.8
20260505204104 60 190 1.7 1.7 0.00 0.00 0.00 88 806.8
20260505203602 61 213 1.7 0.9 0.00 0.00 0.00 91 806.9
20260505203101 60 213 1.7 0.9 0.00 0.00 0.00 90 806.9
20260505202601 60 213 1.7 0.9 0.00 0.00 0.00 89 806.9
20260505202108 60 213 1.7 0.9 0.00 0.00 0.00 90 806.8
20260505201601 61 213 1.7 0.9 0.00 0.00 0.00 91 806.8
20260505201103 61 213 1.7 0.9 0.00 0.00 0.00 92 806.8
20260505200603 60 213 1.7 0.9 0.00 0.00 0.00 91 806.8
20260505200110 61 213 1.7 0.9 0.00 0.00 0.00 89 806.8
20260505195603 60 213 1.7 0.9 0.00 0.00 0.00 90 806.9
20260505195103 60 213 1.7 0.9 0.00 0.00 0.00 90 806.9
20260505194600 61 213 1.7 0.9 0.00 0.00 0.00 90 806.9
20260505194101 60 213 1.7 0.9 0.00 0.00 0.00 90 806.9
20260505193603 61 213 1.7 0.9 0.00 0.00 0.00 89 807.0
20260505193111 61 213 1.7 0.9 0.00 0.00 0.00 89 807.0
20260505192600 62 215 0.9 0.9 0.00 0.00 0.00 91 806.9
20260505192105 61 215 0.9 0.9 0.00 0.00 0.00 89 807.0
20260505191601 62 215 0.9 0.9 0.00 0.00 0.00 90 807.0
20260505191101 62 215 0.9 0.9 0.00 0.00 0.00 88 807.1
20260505190602 61 215 0.9 0.9 0.00 0.00 0.00 87 807.1
20260505190104 61 215 0.9 0.9 0.00 0.00 0.00 86 807.1
20260505185559 61 215 0.9 0.9 0.00 0.00 0.00 88 807.2
20260505185102 61 215 0.9 0.9 0.00 0.00 0.00 88 807.2
20260505184601 61 215 0.9 0.9 0.00 0.00 0.00 89 807.2
20260505184104 61 215 0.9 0.9 0.00 0.00 0.00 89 807.3
20260505183602 61 215 0.9 0.9 0.00 0.00 0.00 90 807.4
20260505183102 61 215 0.9 0.9 0.00 0.00 0.00 90 807.5
20260505182559 61 345 0.0 0.9 0.00 0.00 0.00 91 807.6
20260505182101 61 345 0.0 0.9 0.00 0.00 0.00 90 807.6
20260505181607 61 345 0.0 0.9 0.00 0.00 0.00 89 807.6
20260505181106 61 345 0.0 0.9 0.00 0.00 0.00 90 807.5
20260505180603 61 345 0.0 0.9 0.00 0.00 0.00 89 807.5
20260505180103 61 345 0.0 0.9 0.00 0.00 0.00 91 807.6
20260505175559 61 345 0.0 0.9 0.00 0.00 0.00 90 807.5
20260505175103 62 345 0.0 0.9 0.00 0.00 0.00 89 807.6
20260505174606 61 345 0.0 0.9 0.00 0.00 0.00 90 807.7
20260505174102 62 345 0.0 0.9 0.00 0.00 0.00 88 807.7
20260505173559 62 329 0.0 1.7 0.00 0.00 0.00 90 807.8
20260505173104 62 329 0.0 1.7 0.00 0.00 0.00 90 807.8
20260505172602 61 217 0.0 1.7 0.00 0.00 0.00 91 807.9
20260505172104 62 217 0.0 1.7 0.00 0.00 0.00 91 808.0
20260505171603 62 217 0.0 1.7 0.00 0.00 0.00 90 808.0
20260505171101 62 217 0.0 1.7 0.00 0.00 0.00 90 808.0
20260505170602 62 217 0.0 1.7 0.00 0.00 0.00 90 808.1
20260505170107 62 217 0.0 1.7 0.00 0.00 0.00 90 808.2
20260505165601 62 217 0.0 1.7 0.00 0.00 0.00 90 808.2
20260505165100 62 217 0.0 1.7 0.00 0.00 0.00 90 808.2
20260505164607 63 217 0.0 1.7 0.00 0.00 0.00 90 808.3
20260505164103 63 217 0.0 1.7 0.00 0.00 0.00 90 808.3
20260505163600 62 213 0.9 1.7 0.00 0.00 0.00 89 808.3
20260505163102 62 217 0.0 1.7 0.00 0.00 0.00 90 808.4
20260505162601 63 213 0.9 1.7 0.00 0.00 0.00 91 808.5
20260505162100 63 213 0.9 1.7 0.00 0.00 0.00 91 808.4
20260505161601 63 213 0.9 1.7 0.00 0.00 0.00 91 808.4
20260505161104 63 213 0.9 1.7 0.00 0.00 0.00 91 808.5
20260505160601 63 213 0.9 1.7 0.00 0.00 0.00 90 808.5
20260505160118 63 213 0.9 1.7 0.00 0.00 0.00 89 808.5
20260505153104 63 207 0.9 1.7 0.00 0.00 0.00 90 808.5
20260505152602 63 207 0.9 1.7 0.00 0.00 0.00 89 808.5
20260505152103 63 207 0.9 1.7 0.00 0.00 0.00 89 808.4
20260505151605 63 207 0.9 1.7 0.00 0.00 0.00 89 808.4
20260505151102 63 92 17.4 43.4 0.00 0.00 0.00 89 808.5
20260505150603 63 92 17.4 43.4 0.00 0.00 0.00 88 808.4
20260505150112 64 92 17.4 43.4 0.00 0.00 0.00 89 808.3
20260505140600 64 92 17.4 43.4 0.00 0.00 0.00 91 808.3
20260505140108 63 92 17.4 43.4 0.00 0.00 0.00 90 808.4
20260505130104 64 92 17.4 43.4 0.00 0.00 0.00 88 808.2
20260505124604 64 92 17.4 43.4 0.00 0.00 0.00 90 808.1
20260505124101 64 92 17.4 43.4 0.00 0.00 0.00 90 807.9
20260505123558 64 92 17.4 43.4 0.00 0.00 0.00 91 808.0
20260505123106 64 92 17.4 43.4 0.00 0.00 0.00 91 808.1
20260505122600 64 92 17.4 43.4 0.00 0.00 0.00 91 808.1
20260505122102 64 92 17.4 43.4 0.00 0.00 0.00 89 808.2
20260505121601 64 92 17.4 43.4 0.00 0.00 0.00 88 808.1
20260505121100 65 92 17.4 43.4 0.00 0.00 0.00 88 808.1
20260505120559 65 92 17.4 43.4 0.00 0.00 0.00 88 807.9
20260505115557 65 92 17.4 43.4 0.00 0.00 0.00 90 807.7
20260505115101 65 92 17.4 43.4 0.00 0.00 0.00 88 807.7
20260505114601 64 92 17.4 43.4 0.00 0.00 0.00 88 807.7
20260505114059 64 92 17.4 43.4 0.00 0.00 0.00 89 807.5
20260505113557 64 77 1.7 2.6 0.00 0.00 0.00 90 807.3
20260505113107 64 77 1.7 2.6 0.00 0.00 0.00 90 807.3
20260505112600 64 77 1.7 2.6 0.00 0.00 0.00 91 807.3
20260505112059 65 77 1.7 2.6 0.00 0.00 0.00 90 807.4
20260505111559 65 77 1.7 2.6 0.00 0.00 0.00 88 807.4
20260505111059 65 77 1.7 2.6 0.00 0.00 0.00 88 807.4
20260505110558 65 77 1.7 2.6 0.00 0.00 0.00 89 807.2
20260505110107 65 77 1.7 2.6 0.00 0.00 0.00 89 807.1
20260505102058 66 77 0.9 1.7 0.00 0.00 0.00 90 806.6
20260505101558 66 77 0.9 1.7 0.00 0.00 0.00 90 806.8
20260505101059 65 92 17.4 43.4 0.00 0.00 0.00 90 806.9
20260505100557 65 92 17.4 43.4 0.00 0.00 0.00 90 806.9
20260505095557 66 92 17.4 43.4 0.00 0.00 0.00 91 806.7
20260505095056 66 92 17.4 43.4 0.00 0.00 0.00 90 806.6
20260505094557 66 92 17.4 43.4 0.00 0.00 0.00 90 806.7
20260505094057 67 92 17.4 43.4 0.00 0.00 0.00 88 806.7
20260505093557 67 92 17.4 43.4 0.00 0.00 0.00 91 806.7
20260505093058 67 92 17.4 43.4 0.00 0.00 0.00 90 806.6
20260505092557 67 92 17.4 43.4 0.00 0.00 0.00 91 806.6
20260505092057 66 92 17.4 43.4 0.00 0.00 0.00 90 806.5
20260505091557 67 92 17.4 43.4 0.00 0.00 0.00 89 806.3
20260505091057 67 92 17.4 43.4 0.00 0.00 0.00 88 806.3
20260505090556 67 92 17.4 43.4 0.00 0.00 0.00 88 806.3
20260505090059 68 92 17.4 43.4 0.00 0.00 0.00 89 806.4
20260505085556 68 92 17.4 43.4 0.00 0.00 0.00 88 806.2
20260505085056 69 92 17.4 43.4 0.00 0.00 0.00 88 806.2
20260505084556 68 92 17.4 43.4 0.00 0.00 0.00 89 806.2
20260505084056 68 92 17.4 43.4 0.00 0.00 0.00 88 806.2
20260505083557 68 92 17.4 43.4 0.00 0.00 0.00 89 806.1
20260505083101 68 66 0.9 1.7 0.04 0.00 0.00 88 806.1
20260505082601 69 53 0.9 1.7 0.00 0.00 0.00 89 806.1
20260505082101 68 53 0.9 1.7 0.00 0.00 0.00 88 806.1
20260505081601 68 53 0.9 1.7 0.00 0.00 0.00 87 806.2
20260505081101 68 53 0.9 1.7 0.00 0.00 0.00 89 806.2
20260505080601 68 53 0.9 1.7 0.00 0.00 0.00 87 806.3
20260505075601 69 53 0.9 1.7 0.00 0.00 0.00 87 806.1
20260505075101 70 53 0.9 1.7 0.00 0.00 0.00 87 806.2
20260505074601 70 53 0.9 1.7 0.00 0.00 0.00 86 806.2
20260505074101 70 53 0.9 1.7 0.00 0.00 0.00 85 806.2
20260505073601 71 53 0.9 1.7 0.00 0.00 0.00 85 806.2
20260505073101 73 53 0.9 1.7 0.05 0.00 0.00 81 806.1
20260505072601 75 28 0.9 2.6 0.00 0.00 0.00 81 806.1
20260505072102 76 28 0.9 2.6 0.00 0.00 0.00 75 806.1
20260505071601 76 28 0.9 2.6 0.00 0.00 0.00 77 806.2
20260505071101 77 28 0.9 2.6 0.00 0.00 0.00 77 806.2
20260505070601 78 28 0.9 2.6 0.00 0.00 0.00 75 806.3
20260505070104 75 28 0.9 2.6 0.00 0.00 0.00 76 806.3
20260505065601 73 28 0.9 2.6 0.00 0.00 0.00 84 806.4
20260505065101 72 28 0.9 2.6 0.00 0.00 0.00 82 806.4
20260505064601 74 28 0.9 2.6 0.00 0.00 0.00 81 806.5
20260505064101 75 28 0.9 2.6 0.00 0.00 0.00 80 806.5
20260505063601 77 28 0.9 2.6 0.00 0.00 0.00 80 806.6
20260505063103 77 28 0.9 2.6 0.06 0.00 0.00 78 806.6
20260505062601 74 25 1.7 2.6 0.00 0.00 0.00 83 806.7
20260505062102 75 25 1.7 2.6 0.00 0.00 0.00 76 806.8
20260505061602 75 25 1.7 2.6 0.07 0.00 0.00 79 806.9
20260505061102 74 25 1.7 2.6 0.07 0.00 0.00 81 807.0
20260505060601 73 25 1.7 2.6 0.00 0.00 0.00 80 807.0
20260505060106 74 25 1.7 2.6 0.00 0.00 0.00 82 807.1
20260505055601 76 25 1.7 2.6 0.00 0.00 0.00 77 807.1
20260505055102 78 25 1.7 2.6 0.07 0.00 0.00 77 807.1
20260505054602 80 28 1.7 2.6 0.00 0.00 0.00 71 807.2
20260505054103 81 28 1.7 2.6 0.00 0.00 0.00 74 807.2
20260505053602 82 28 1.7 2.6 0.06 0.00 0.00 71 807.3
20260505053104 80 28 1.7 2.6 0.06 0.00 0.00 69 807.3
20260505052601 79 12 0.9 1.7 0.00 0.00 0.00 74 807.3
20260505052102 80 12 0.9 1.7 0.00 0.00 0.00 70 807.4
20260505051603 79 12 0.9 1.7 0.06 0.00 0.00 75 807.4
20260505051105 78 12 0.9 1.7 0.06 0.00 0.00 73 807.4
20260505050602 78 12 0.9 1.7 0.00 0.00 0.00 76 807.5
20260505050108 77 12 0.9 1.7 0.00 0.00 0.00 79 807.6
20260505041604 71 3 1.7 2.6 0.00 0.00 0.00 84 808.1
20260505041104 70 3 1.7 2.6 0.04 0.00 0.00 88 808.2
20260505040602 68 3 1.7 2.6 0.00 0.00 0.00 89 808.2
20260505040110 68 3 1.7 2.6 0.00 0.00 0.00 88 808.3
20260505035604 68 3 1.7 2.6 0.00 0.00 0.00 90 808.3
20260505035103 68 3 1.7 2.6 0.00 0.00 0.00 88 808.3
20260505034605 68 3 1.7 2.6 0.00 0.00 0.00 89 808.4
20260505034107 68 3 1.7 2.6 0.04 0.00 0.00 88 808.4
20260505033603 68 3 1.7 2.6 0.04 0.00 0.00 87 808.4
20260505033111 68 3 1.7 2.6 0.04 0.00 0.00 87 808.4
20260505032604 68 16 1.7 2.6 0.00 0.00 0.00 86 808.4
20260505032108 69 16 1.7 2.6 0.00 0.00 0.00 86 808.5
20260505031605 69 16 1.7 2.6 0.02 0.00 0.00 85 808.5
20260505031107 69 16 1.7 2.6 0.02 0.00 0.00 86 808.5
20260505030604 70 16 1.7 2.6 0.00 0.00 0.00 84 808.5
20260505030114 71 16 1.7 2.6 0.00 0.00 0.00 85 808.5
20260505025604 71 16 1.7 2.6 0.02 0.00 0.00 86 808.4
20260505025104 70 16 1.7 2.6 0.02 0.00 0.00 84 808.5
20260505024604 70 16 1.7 2.6 0.00 0.00 0.00 89 808.5
20260505024106 71 16 1.7 2.6 0.00 0.00 0.00 85 808.5
20260505023606 72 16 1.7 2.6 0.00 0.00 0.00 85 808.5
20260505023111 73 23 1.7 2.6 0.00 0.00 0.00 78 808.5
20260505022605 74 23 1.7 2.6 0.00 0.00 0.00 80 808.5
20260505022106 76 23 1.7 2.6 0.00 0.00 0.00 75 808.5
20260505021606 79 23 1.7 2.6 0.00 0.00 0.00 77 808.4
20260505021107 81 23 1.7 2.6 0.00 0.00 0.00 69 808.4
20260505020606 81 23 1.7 2.6 0.00 0.00 0.00 74 808.4
20260505020122 82 23 1.7 2.6 0.00 0.00 0.00 72 808.4
20260505015606 82 23 1.7 2.6 0.00 0.00 0.00 73 808.4
20260505015109 79 23 1.7 2.6 0.00 0.00 0.00 72 808.4
20260505014609 78 23 1.7 2.6 0.00 0.00 0.00 76 808.5
20260505014110 79 23 1.7 2.6 0.00 0.00 0.00 71 808.4
20260505013605 80 23 1.7 2.6 0.00 0.00 0.00 71 808.4
20260505013117 80 23 1.7 2.6 0.00 0.00 0.00 73 808.3
20260505012607 78 25 1.7 2.6 0.00 0.00 0.00 75 808.3
20260505012110 77 25 1.7 2.6 0.00 0.00 0.00 77 808.2
20260505011606 78 25 1.7 2.6 0.00 0.00 0.00 72 808.2
20260505011106 77 25 1.7 2.6 0.00 0.00 0.00 74 808.2
20260505010607 75 25 1.7 2.6 0.00 0.00 0.00 77 808.1
20260505010118 74 25 1.7 2.6 0.00 0.00 0.00 78 808.1
20260505005604 75 25 1.7 2.6 0.00 0.00 0.00 75 808.0
20260505005106 75 25 1.7 2.6 0.00 0.00 0.00 79 808.0
20260505004608 74 25 1.7 2.6 0.00 0.00 0.00 79 808.0
20260505004106 72 25 1.7 2.6 0.00 0.00 0.00 75 807.9
20260505003604 72 25 1.7 2.6 0.00 0.00 0.00 78 807.9
20260505003117 71 25 1.7 2.6 0.00 0.00 0.00 78 807.8
20260505002604 70 53 0.9 1.7 0.00 0.00 0.00 83 807.7
20260505002109 69 53 0.9 1.7 0.00 0.00 0.00 82 807.7
20260505001606 67 53 0.9 1.7 0.00 0.00 0.00 81 807.7
20260505001105 67 53 0.9 1.7 0.00 0.00 0.00 81 807.6
20260505000606 67 53 0.9 1.7 0.00 0.00 0.00 84 807.5
20260505000116 66 53 0.9 1.7 0.00 0.00 0.00 84 807.5
20260504235604 65 44 0.9 1.7 0.00 0.00 0.00 87 807.5
20260504235109 63 44 0.9 1.7 0.00 0.00 0.00 89 807.5
20260504234607 63 44 0.9 1.7 0.00 0.00 0.00 91 807.5
20260504234110 62 44 0.9 1.7 0.00 0.00 0.00 91 807.4
20260504233604 62 46 0.9 1.7 0.00 0.00 0.00 91 807.3
20260504233115 62 46 0.9 1.7 0.00 0.00 0.00 92 807.4
20260504232603 61 46 0.9 1.7 0.00 0.00 0.00 91 807.4
20260504232105 62 46 0.9 1.7 0.00 0.00 0.00 92 807.3
20260504231609 62 46 0.9 1.7 0.00 0.00 0.00 93 807.2
20260504231108 62 46 0.9 1.7 0.00 0.00 0.00 92 807.2
20260504230603 61 46 0.9 1.7 0.00 0.00 0.00 92 807.2
20260504230123 61 46 0.9 1.7 0.00 0.00 0.00 91 807.1
20260504225603 61 46 0.9 1.7 0.00 0.00 0.00 92 807.1
20260504225107 60 46 0.9 1.7 0.00 0.00 0.00 92 807.0
20260504224605 60 46 0.9 1.7 0.00 0.00 0.00 91 807.0
20260504224109 60 46 0.9 1.7 0.00 0.00 0.00 91 806.9